Track STARLINK-1759 now! 10-day predictions STARLINK-1759 is classified as:
1 46340U 20062R 21023.25001157 .00029447 00000-0 19884-2 0 9994 2 46340 53.0570 137.8132 0001380 85.7100 112.6015 15.06383988 22413